STARLINK-32282, 61006

Orbit data source: Space-Track

STARLINK-32282, 61006 is a payload satellite owned by SpaceX/Seattle (US) in LEO that was launched on Thu, 05 Sep 2024 UTC via an FALCON 9 launch vehicle from the Air Force Eastern Test Range (AFETR). Payload-class satellites include a variety of spacecraft equipped with specific instruments for various scientific and technological missions. These include communications satellites like Starlink; space stations such as the ISS; scientific satellites like the Hubble; Earth observation satellites from companies like Planet Labs, Umbra, and HawkEye 360; GPS; miniature CubeSats for education and research; and military/defense satellites.

Loading next visibility...
Identifier
61006, 2024-158S
Orbit
LEO
Country
Flag of USUS
Related business
Manufacturer
SpaceX/Seattle
Mission
Operational Commercial Communications
Bus & Motor
STARLINK V2M, Unknown motor
Mass
730 kg wet, ~700 kg dry
Launch date (UTC)
2024-09-05 (2 years ago)
Launch vehicle
FALCON 9
Launch site
Air Force Eastern Test Range (AFETR)
Object type
Payload
Rocket body
Debris
Shape & HBR
Box + 2 Pan, 17.7 m
Radar Cross Section
33.884 m², Large (>1 m²)

Expand to show TLE details & history
Last TLE update: 21 hours ago

TLE from 21 hours ago
0 STARLINK-32282
1 61006U 24158S   26124.40953957  .00000836  00000-0  40388-4 0  9994
2 61006  53.1597 166.6127 0001180  69.5938 290.5189 15.30178422 94183
Epoch: 2026-05-04T09:49Z
TLE epoch observation values (Epoch: 2026-05-04T09:49:44.218Z)
Latitude
-0.00007°
Longitude
156.87926°
Altitude
475.896 km
Speed
7.629 km/s
True Right ascension
11h 06m 27s
True Declination
0° 00' 00"
Sunlit
Object was in full shadow at epoch
Visualization orbit readout
Latitude
Unknown
Longitude
Unknown
Altitude
Unknown
Speed
Unknown
Apparent Right ascension
Unknown
Apparent Declination
Unknown
Sunlit
N/A
Visualization observer readout
Local Sidereal Time
15:01:59
Azimuth
Unknown
Elevation
Unknown
Doppler factor
Unknown
Orbital elements
Apogee altitude
476.345 km
Perigee altitude
474.727 km
Semi-major axis
6,853.673 km
Eccentricity
0.00012
Inclination
53.1597°
RAAN
166.6127°
Arg. of periapsis
69.5938°
True anomaly
290.50624°
Mean anomaly
290.5189°
Eccentric anomaly
290.51257°
Mean motion
3.82523 °/min
Orbital period
94.11 mins
BSTAR
0.000040388
Loading maneuver chart data...
Computing Atmospheric mass density...
Loading historical data...
Loading historical data...
Loading historical data...
Loading historical data...
Loading historical data...
Loading historical data...
Loading historical data...

Documentation

Showing up to 5 results
|